Time,TemperatureF,DewpointF,PressureIn,WindDirection,WindDirectionDegrees,WindSpeedMPH,WindSpeedGustMPH,Humidity,HourlyPrecipIn,Conditions,Clouds,dailyrainin,SoftwareType,DateUTC
2013-04-21 00:01:00,45.7,35.7,30.14,North,0,0.0,0.0,68,0.00,,,0.00,WUHU216HW,2013-04-21 04:01:00,
2013-04-21 00:06:00,45.4,35.4,30.14,North,0,0.0,0.0,68,0.00,,,0.00,WUHU216HW,2013-04-21 04:06:00,
2013-04-21 00:11:00,45.4,35.4,30.14,North,0,0.0,0.0,68,0.00,,,0.00,WUHU216HW,2013-04-21 04:11:00,
2013-04-21 00:16:00,45.2,35.7,30.14,North,0,0.0,0.0,69,0.00,,,0.00,WUHU216HW,2013-04-21 04:16:00,
2013-04-21 00:21:00,45.0,35.8,30.14,North,0,0.0,0.0,70,0.00,,,0.00,WUHU216HW,2013-04-21 04:21:00,
2013-04-21 00:26:00,44.8,35.3,30.14,North,0,0.0,0.0,69,0.00,,,0.00,WUHU216HW,2013-04-21 04:26:00,
2013-04-21 00:31:00,44.5,35.3,30.14,North,0,0.0,0.0,70,0.00,,,0.00,WUHU216HW,2013-04-21 04:31:00,
2013-04-21 00:36:00,44.5,36.0,30.14,North,0,0.0,0.0,72,0.00,,,0.00,WUHU216HW,2013-04-21 04:36:00,
2013-04-21 00:41:00,44.1,36.0,30.13,North,0,0.0,0.0,73,0.00,,,0.00,WUHU216HW,2013-04-21 04:41:00,
2013-04-21 00:46:00,43.9,35.5,30.13,North,0,0.0,0.0,72,0.00,,,0.00,WUHU216HW,2013-04-21 04:46:00,
2013-04-21 00:51:00,43.9,35.5,30.14,North,0,0.0,0.0,72,0.00,,,0.00,WUHU216HW,2013-04-21 04:51:00,
2013-04-21 00:56:00,43.7,35.0,30.13,North,0,0.0,0.0,71,0.00,,,0.00,WUHU216HW,2013-04-21 04:56:00,
2013-04-21 01:01:00,43.6,35.2,30.14,North,0,0.0,0.0,72,0.00,,,0.00,WUHU216HW,2013-04-21 05:01:00,
2013-04-21 01:06:00,43.6,35.2,30.14,North,0,0.0,0.0,72,0.00,,,0.00,WUHU216HW,2013-04-21 05:06:00,
2013-04-21 01:11:00,42.8,34.5,30.14,North,0,0.0,0.0,72,0.00,,,0.00,WUHU216HW,2013-04-21 05:11:00,
2013-04-21 01:16:00,42.8,35.5,30.14,North,0,0.0,0.0,75,0.00,,,0.00,WUHU216HW,2013-04-21 05:16:00,
2013-04-21 01:21:00,42.8,35.1,30.14,North,0,0.0,0.0,74,0.00,,,0.00,WUHU216HW,2013-04-21 05:21:00,
2013-04-21 01:26:00,42.7,34.9,30.14,North,0,0.0,0.0,74,0.00,,,0.00,WUHU216HW,2013-04-21 05:26:00,
2013-04-21 01:31:00,42.5,34.7,30.14,North,0,0.0,0.0,74,0.00,,,0.00,WUHU216HW,2013-04-21 05:31:00,
2013-04-21 01:36:00,42.5,35.5,30.14,North,0,0.0,0.0,76,0.00,,,0.00,WUHU216HW,2013-04-21 05:36:00,
2013-04-21 01:41:00,42.3,35.3,30.14,North,0,0.0,0.0,76,0.00,,,0.00,WUHU216HW,2013-04-21 05:41:00,
2013-04-21 01:46:00,42.1,35.7,30.14,North,0,0.0,0.0,78,0.00,,,0.00,WUHU216HW,2013-04-21 05:46:00,
2013-04-21 01:51:00,42.1,35.4,30.14,North,0,0.0,0.0,77,0.00,,,0.00,WUHU216HW,2013-04-21 05:51:00,
2013-04-21 01:56:00,42.1,35.4,30.14,North,0,0.0,0.0,77,0.00,,,0.00,WUHU216HW,2013-04-21 05:56:00,
2013-04-21 02:01:00,41.8,34.8,30.14,North,0,0.0,0.0,76,0.00,,,0.00,WUHU216HW,2013-04-21 06:01:00,
2013-04-21 02:06:00,41.8,35.4,30.14,North,0,0.0,0.0,78,0.00,,,0.00,WUHU216HW,2013-04-21 06:06:00,
2013-04-21 02:11:00,41.6,34.8,30.14,North,0,0.0,0.0,77,0.00,,,0.00,WUHU216HW,2013-04-21 06:11:00,
2013-04-21 02:16:00,41.4,35.3,30.14,North,0,0.0,0.0,79,0.00,,,0.00,WUHU216HW,2013-04-21 06:16:00,
2013-04-21 02:21:00,41.4,35.0,30.14,North,0,0.0,0.0,78,0.00,,,0.00,WUHU216HW,2013-04-21 06:21:00,
2013-04-21 02:26:00,41.4,35.0,30.14,North,0,0.0,0.0,78,0.00,,,0.00,WUHU216HW,2013-04-21 06:26:00,
2013-04-21 02:31:00,41.4,35.0,30.14,North,0,0.0,0.0,78,0.00,,,0.00,WUHU216HW,2013-04-21 06:31:00,
2013-04-21 02:36:00,41.4,35.0,30.14,North,0,0.0,0.0,78,0.00,,,0.00,WUHU216HW,2013-04-21 06:36:00,
2013-04-21 02:41:00,41.4,35.0,30.14,North,0,0.0,0.0,78,0.00,,,0.00,WUHU216HW,2013-04-21 06:41:00,
2013-04-21 02:46:00,40.9,34.5,30.14,North,0,0.0,0.0,78,0.00,,,0.00,WUHU216HW,2013-04-21 06:46:00,
2013-04-21 02:51:00,40.9,34.8,30.14,North,0,0.0,0.0,79,0.00,,,0.00,WUHU216HW,2013-04-21 06:51:00,
2013-04-21 02:56:00,41.0,35.6,30.14,North,0,0.0,0.0,81,0.00,,,0.00,WUHU216HW,2013-04-21 06:56:00,
2013-04-21 03:01:00,40.9,35.1,30.14,North,0,0.0,0.0,80,0.00,,,0.00,WUHU216HW,2013-04-21 07:01:00,
2013-04-21 03:06:00,40.9,35.1,30.13,North,0,0.0,0.0,80,0.00,,,0.00,WUHU216HW,2013-04-21 07:06:00,
2013-04-21 03:11:00,40.9,35.1,30.14,North,0,0.0,0.0,80,0.00,,,0.00,WUHU216HW,2013-04-21 07:11:00,
2013-04-21 03:16:00,40.7,34.9,30.14,North,0,0.0,0.0,80,0.00,,,0.00,WUHU216HW,2013-04-21 07:16:00,
2013-04-21 03:21:00,40.3,34.7,30.14,North,0,0.0,0.0,80,0.00,,,0.00,WUHU216HW,2013-04-21 07:21:00,
2013-04-21 03:26:00,40.1,34.5,30.14,North,0,0.0,0.0,80,0.00,,,0.00,WUHU216HW,2013-04-21 07:26:00,
2013-04-21 03:31:00,40.3,35.2,30.14,North,0,0.0,0.0,82,0.00,,,0.00,WUHU216HW,2013-04-21 07:31:00,
2013-04-21 03:36:00,40.3,35.2,30.14,North,0,0.0,0.0,82,0.00,,,0.00,WUHU216HW,2013-04-21 07:36:00,
2013-04-21 03:41:00,40.0,34.6,30.14,North,0,0.0,0.0,81,0.00,,,0.00,WUHU216HW,2013-04-21 07:41:00,
2013-04-21 03:46:00,39.8,34.8,30.14,North,0,0.0,0.0,82,0.00,,,0.00,WUHU216HW,2013-04-21 07:46:00,
2013-04-21 03:51:00,39.6,34.3,30.14,North,0,0.0,0.0,81,0.00,,,0.00,WUHU216HW,2013-04-21 07:51:00,
2013-04-21 03:56:00,39.2,34.2,30.15,North,0,0.0,0.0,82,0.00,,,0.00,WUHU216HW,2013-04-21 07:56:00,
2013-04-21 04:01:00,39.1,34.0,30.15,North,0,0.0,0.0,82,0.00,,,0.00,WUHU216HW,2013-04-21 08:01:00,
2013-04-21 04:06:00,39.2,34.2,30.15,North,0,0.0,0.0,82,0.00,,,0.00,WUHU216HW,2013-04-21 08:06:00,
2013-04-21 04:11:00,39.2,34.2,30.15,North,0,0.0,0.0,82,0.00,,,0.00,WUHU216HW,2013-04-21 08:11:00,
2013-04-21 04:16:00,39.2,34.2,30.15,North,0,0.0,0.0,82,0.00,,,0.00,WUHU216HW,2013-04-21 08:16:00,
2013-04-21 04:21:00,39.6,34.6,30.15,North,0,0.0,0.0,82,0.00,,,0.00,WUHU216HW,2013-04-21 08:21:00,
2013-04-21 04:26:00,39.6,34.8,30.15,North,0,0.0,0.0,83,0.00,,,0.00,WUHU216HW,2013-04-21 08:26:00,
2013-04-21 04:31:00,39.6,34.6,30.15,North,0,0.0,0.0,82,0.00,,,0.00,WUHU216HW,2013-04-21 08:31:00,
2013-04-21 04:36:00,39.6,35.2,30.15,North,0,0.0,0.0,84,0.00,,,0.00,WUHU216HW,2013-04-21 08:36:00,
2013-04-21 04:41:00,39.6,34.6,30.16,North,0,0.0,0.0,82,0.00,,,0.00,WUHU216HW,2013-04-21 08:41:00,
2013-04-21 04:46:00,39.6,34.8,30.16,North,0,0.0,0.0,83,0.00,,,0.00,WUHU216HW,2013-04-21 08:46:00,
2013-04-21 04:51:00,39.4,34.7,30.16,North,0,0.0,0.0,83,0.00,,,0.00,WUHU216HW,2013-04-21 08:51:00,
2013-04-21 04:56:00,39.4,35.0,30.16,North,0,0.0,0.0,84,0.00,,,0.00,WUHU216HW,2013-04-21 08:56:00,
2013-04-21 05:01:00,39.4,35.0,30.16,North,0,0.0,0.0,84,0.00,,,0.00,WUHU216HW,2013-04-21 09:01:00,
2013-04-21 05:06:00,39.2,34.8,30.16,North,0,0.0,0.0,84,0.00,,,0.00,WUHU216HW,2013-04-21 09:06:00,
2013-04-21 05:11:00,39.2,34.8,30.16,North,0,0.0,0.0,84,0.00,,,0.00,WUHU216HW,2013-04-21 09:11:00,
2013-04-21 05:16:00,39.2,35.1,30.16,North,0,0.0,0.0,85,0.00,,,0.00,WUHU216HW,2013-04-21 09:16:00,
2013-04-21 05:21:00,39.2,34.8,30.16,North,0,0.0,0.0,84,0.00,,,0.00,WUHU216HW,2013-04-21 09:21:00,
2013-04-21 05:26:00,39.2,34.8,30.16,North,0,0.0,0.0,84,0.00,,,0.00,WUHU216HW,2013-04-21 09:26:00,
2013-04-21 05:31:00,39.2,34.8,30.17,North,0,0.0,0.0,84,0.00,,,0.00,WUHU216HW,2013-04-21 09:31:00,
2013-04-21 05:36:00,39.2,34.8,30.17,North,0,0.0,0.0,84,0.00,,,0.00,WUHU216HW,2013-04-21 09:36:00,
2013-04-21 05:41:00,39.2,34.8,30.17,North,0,0.0,0.0,84,0.00,,,0.00,WUHU216HW,2013-04-21 09:41:00,
2013-04-21 05:46:00,39.2,34.8,30.17,North,0,0.0,0.0,84,0.00,,,0.00,WUHU216HW,2013-04-21 09:46:00,
2013-04-21 05:51:00,39.2,35.1,30.17,North,0,0.0,0.0,85,0.00,,,0.00,WUHU216HW,2013-04-21 09:51:00,
2013-04-21 05:56:00,39.2,35.1,30.18,North,0,0.0,0.0,85,0.00,,,0.00,WUHU216HW,2013-04-21 09:56:00,
2013-04-21 06:01:00,39.2,35.1,30.18,North,0,0.0,0.0,85,0.00,,,0.00,WUHU216HW,2013-04-21 10:01:00,
2013-04-21 06:06:00,39.2,35.1,30.18,North,0,0.0,0.0,85,0.00,,,0.00,WUHU216HW,2013-04-21 10:06:00,
2013-04-21 06:11:00,39.2,35.4,30.18,North,0,0.0,0.0,86,0.00,,,0.00,WUHU216HW,2013-04-21 10:11:00,
2013-04-21 06:16:00,39.1,35.2,30.19,North,0,0.0,0.0,86,0.00,,,0.00,WUHU216HW,2013-04-21 10:16:00,
2013-04-21 06:21:00,39.1,35.2,30.19,North,0,0.0,0.0,86,0.00,,,0.00,WUHU216HW,2013-04-21 10:21:00,
2013-04-21 06:26:00,39.1,35.2,30.19,North,0,0.0,0.0,86,0.00,,,0.00,WUHU216HW,2013-04-21 10:26:00,
2013-04-21 06:31:00,39.1,34.9,30.19,North,0,0.0,0.0,85,0.00,,,0.00,WUHU216HW,2013-04-21 10:31:00,
2013-04-21 06:36:00,39.1,35.2,30.19,North,0,0.0,0.0,86,0.00,,,0.00,WUHU216HW,2013-04-21 10:36:00,
2013-04-21 06:41:00,39.2,35.4,30.19,North,0,0.0,0.0,86,0.00,,,0.00,WUHU216HW,2013-04-21 10:41:00,
2013-04-21 06:46:00,39.1,35.2,30.19,North,0,0.0,0.0,86,0.00,,,0.00,WUHU216HW,2013-04-21 10:46:00,
2013-04-21 06:51:00,38.9,34.7,30.19,North,0,0.0,0.0,85,0.00,,,0.00,WUHU216HW,2013-04-21 10:51:00,
2013-04-21 06:56:00,38.9,34.7,30.19,North,0,0.0,0.0,85,0.00,,,0.00,WUHU216HW,2013-04-21 10:56:00,
2013-04-21 07:01:00,38.9,35.0,30.20,North,0,0.0,0.0,86,0.00,,,0.00,WUHU216HW,2013-04-21 11:01:00,
2013-04-21 07:06:00,39.2,35.6,30.20,North,0,0.0,0.0,87,0.00,,,0.00,WUHU216HW,2013-04-21 11:06:00,
2013-04-21 07:11:00,39.2,35.4,30.19,North,0,0.0,0.0,86,0.00,,,0.00,WUHU216HW,2013-04-21 11:11:00,
2013-04-21 07:16:00,39.2,35.4,30.19,North,0,0.0,0.0,86,0.00,,,0.00,WUHU216HW,2013-04-21 11:16:00,
2013-04-21 07:21:00,39.2,35.4,30.20,North,0,0.0,0.0,86,0.00,,,0.00,WUHU216HW,2013-04-21 11:21:00,
2013-04-21 07:26:00,39.6,36.0,30.20,North,0,0.0,0.0,87,0.00,,,0.00,WUHU216HW,2013-04-21 11:26:00,
2013-04-21 07:31:00,39.8,36.5,30.20,North,0,0.0,0.0,88,0.00,,,0.00,WUHU216HW,2013-04-21 11:31:00,
2013-04-21 07:36:00,39.6,36.0,30.20,North,0,0.0,0.0,87,0.00,,,0.00,WUHU216HW,2013-04-21 11:36:00,
2013-04-21 07:41:00,39.8,36.2,30.20,North,0,0.0,0.0,87,0.00,,,0.00,WUHU216HW,2013-04-21 11:41:00,
2013-04-21 07:46:00,40.0,36.4,30.20,North,0,0.0,0.0,87,0.00,,,0.00,WUHU216HW,2013-04-21 11:46:00,
2013-04-21 07:51:00,40.0,36.4,30.20,North,0,0.0,0.0,87,0.00,,,0.00,WUHU216HW,2013-04-21 11:51:00,
2013-04-21 07:56:00,40.1,36.5,30.20,North,0,0.0,0.0,87,0.00,,,0.00,WUHU216HW,2013-04-21 11:56:00,
2013-04-21 08:01:00,40.3,36.7,30.20,North,0,0.0,0.0,87,0.00,,,0.00,WUHU216HW,2013-04-21 12:01:00,
2013-04-21 08:06:00,40.5,36.9,30.20,North,0,0.0,0.0,87,0.00,,,0.00,WUHU216HW,2013-04-21 12:06:00,
2013-04-21 08:11:00,40.7,37.1,30.21,North,0,0.0,0.0,87,0.00,,,0.00,WUHU216HW,2013-04-21 12:11:00,
2013-04-21 08:16:00,41.0,37.5,30.20,North,0,0.0,0.0,87,0.00,,,0.00,WUHU216HW,2013-04-21 12:16:00,
2013-04-21 08:21:00,41.4,37.8,30.21,North,0,0.0,0.0,87,0.00,,,0.00,WUHU216HW,2013-04-21 12:21:00,
2013-04-21 08:26:00,41.6,38.0,30.21,North,0,0.0,0.0,87,0.00,,,0.00,WUHU216HW,2013-04-21 12:26:00,
2013-04-21 08:31:00,42.1,38.2,30.21,North,0,0.0,0.0,86,0.00,,,0.00,WUHU216HW,2013-04-21 12:31:00,
2013-04-21 08:36:00,42.8,38.9,30.21,North,0,0.0,0.0,86,0.00,,,0.00,WUHU216HW,2013-04-21 12:36:00,
2013-04-21 08:41:00,43.6,39.3,30.22,North,0,0.0,0.0,85,0.00,,,0.00,WUHU216HW,2013-04-21 12:41:00,
2013-04-21 08:46:00,44.5,40.0,30.22,North,0,0.0,0.0,84,0.00,,,0.00,WUHU216HW,2013-04-21 12:46:00,
2013-04-21 08:51:00,45.4,40.2,30.22,North,0,0.0,0.0,82,0.00,,,0.00,WUHU216HW,2013-04-21 12:51:00,
2013-04-21 08:56:00,46.4,41.0,30.22,North,0,0.0,0.0,81,0.00,,,0.00,WUHU216HW,2013-04-21 12:56:00,
2013-04-21 09:01:00,47.9,41.0,30.22,North,0,0.0,0.0,77,0.00,,,0.00,WUHU216HW,2013-04-21 13:01:00,
2013-04-21 09:06:00,48.6,41.0,30.22,North,0,0.0,0.0,75,0.00,,,0.00,WUHU216HW,2013-04-21 13:06:00,
2013-04-21 09:11:00,49.1,40.2,30.22,North,0,0.0,0.0,71,0.00,,,0.00,WUHU216HW,2013-04-21 13:11:00,
2013-04-21 09:16:00,50.8,40.2,30.22,North,0,0.0,0.0,67,0.00,,,0.00,WUHU216HW,2013-04-21 13:16:00,
2013-04-21 09:21:00,51.1,39.3,30.22,North,0,0.0,0.0,64,0.00,,,0.00,WUHU216HW,2013-04-21 13:21:00,
2013-04-21 09:26:00,51.7,39.9,30.22,North,0,0.0,0.0,64,0.00,,,0.00,WUHU216HW,2013-04-21 13:26:00,
2013-04-21 09:31:00,52.0,38.1,30.22,North,0,0.0,0.0,59,0.00,,,0.00,WUHU216HW,2013-04-21 13:31:00,
2013-04-21 09:36:00,52.7,37.5,30.22,North,0,0.0,0.0,56,0.00,,,0.00,WUHU216HW,2013-04-21 13:36:00,
2013-04-21 09:41:00,53.3,38.4,30.22,North,0,0.0,0.0,57,0.00,,,0.00,WUHU216HW,2013-04-21 13:41:00,
2013-04-21 09:46:00,53.3,38.9,30.22,North,0,0.0,0.0,58,0.00,,,0.00,WUHU216HW,2013-04-21 13:46:00,
2013-04-21 09:51:00,53.6,39.3,30.22,North,0,0.0,0.0,58,0.00,,,0.00,WUHU216HW,2013-04-21 13:51:00,
2013-04-21 09:56:00,54.0,39.1,30.22,North,0,0.0,0.0,57,0.00,,,0.00,WUHU216HW,2013-04-21 13:56:00,
2013-04-21 10:01:00,54.4,39.9,30.22,North,0,0.0,0.0,58,0.00,,,0.00,WUHU216HW,2013-04-21 14:01:00,
2013-04-21 10:06:00,54.4,39.9,30.22,North,0,0.0,0.0,58,0.00,,,0.00,WUHU216HW,2013-04-21 14:06:00,
2013-04-21 10:24:00,56.3,39.4,30.23,North,0,0.0,0.0,53,0.00,,,0.00,WUHU216HW,2013-04-21 14:24:00,
2013-04-21 10:29:00,56.3,39.4,30.23,North,0,0.0,0.0,53,0.00,,,0.00,WUHU216HW,2013-04-21 14:29:00,
2013-04-21 10:34:00,56.9,41.3,30.23,North,0,0.0,0.0,56,0.00,,,0.00,WUHU216HW,2013-04-21 14:34:00,
2013-04-21 10:39:00,56.9,41.3,30.23,North,0,0.0,0.0,56,0.00,,,0.00,WUHU216HW,2013-04-21 14:39:00,
2013-04-21 10:44:00,57.4,41.0,30.23,North,0,0.0,0.0,54,0.00,,,0.00,WUHU216HW,2013-04-21 14:44:00,
2013-04-21 10:49:00,57.4,41.0,30.23,North,0,0.0,0.0,54,0.00,,,0.00,WUHU216HW,2013-04-21 14:49:00,
2013-04-21 10:54:00,58.7,39.1,30.23,North,0,0.0,0.0,48,0.00,,,0.00,WUHU216HW,2013-04-21 14:54:00,
2013-04-21 10:59:00,58.9,41.3,30.23,North,0,0.0,0.0,52,0.00,,,0.00,WUHU216HW,2013-04-21 14:59:00,
2013-04-21 11:04:00,58.9,41.3,30.23,North,0,0.0,0.0,52,0.00,,,0.00,WUHU216HW,2013-04-21 15:04:00,
2013-04-21 11:09:00,59.9,41.8,30.23,North,0,0.0,0.0,51,0.00,,,0.00,WUHU216HW,2013-04-21 15:09:00,
2013-04-21 11:14:00,59.9,41.8,30.23,North,0,0.0,0.0,51,0.00,,,0.00,WUHU216HW,2013-04-21 15:14:00,
2013-04-21 11:23:00,61.2,42.5,30.23,North,0,0.0,0.0,50,0.00,,,0.00,WUHU216HW,2013-04-21 15:23:00,
2013-04-21 11:28:00,61.6,40.5,30.23,North,0,0.0,0.0,46,0.00,,,0.00,WUHU216HW,2013-04-21 15:28:00,
2013-04-21 11:33:00,62.3,42.3,30.23,North,0,0.0,0.0,48,0.00,,,0.00,WUHU216HW,2013-04-21 15:33:00,
2013-04-21 11:38:00,62.6,40.3,30.23,North,0,0.0,0.0,44,0.00,,,0.00,WUHU216HW,2013-04-21 15:38:00,
2013-04-21 11:43:00,62.8,39.3,30.23,North,0,0.0,0.0,42,0.00,,,0.00,WUHU216HW,2013-04-21 15:43:00,
2013-04-21 11:48:00,62.6,39.7,30.23,North,0,0.0,0.0,43,0.00,,,0.00,WUHU216HW,2013-04-21 15:48:00,
2013-04-21 11:53:00,62.5,39.0,30.23,North,0,0.0,0.0,42,0.00,,,0.00,WUHU216HW,2013-04-21 15:53:00,
2013-04-21 11:58:00,63.4,42.1,30.24,North,0,0.0,0.0,46,0.00,,,0.00,WUHU216HW,2013-04-21 15:58:00,
2013-04-21 12:03:00,64.1,42.8,30.23,North,0,0.0,0.0,46,0.00,,,0.00,WUHU216HW,2013-04-21 16:03:00,
2013-04-21 12:08:00,64.3,40.6,30.24,North,0,0.0,0.0,42,0.00,,,0.00,WUHU216HW,2013-04-21 16:08:00,
2013-04-21 12:13:00,64.4,38.9,30.24,North,0,0.0,0.0,39,0.00,,,0.00,WUHU216HW,2013-04-21 16:13:00,
2013-04-21 12:18:00,64.3,37.3,30.24,North,0,0.0,0.0,37,0.00,,,0.00,WUHU216HW,2013-04-21 16:18:00,
2013-04-21 12:23:00,64.3,39.4,30.23,North,0,0.0,0.0,40,0.00,,,0.00,WUHU216HW,2013-04-21 16:23:00,
2013-04-21 12:28:00,64.3,39.4,30.23,North,0,0.0,0.0,40,0.00,,,0.00,WUHU216HW,2013-04-21 16:28:00,
2013-04-21 12:33:00,64.6,40.3,30.22,North,0,0.0,0.0,41,0.00,,,0.00,WUHU216HW,2013-04-21 16:33:00,
2013-04-21 12:38:00,64.6,40.3,30.22,North,0,0.0,0.0,41,0.00,,,0.00,WUHU216HW,2013-04-21 16:38:00,
2013-04-21 12:43:00,64.1,40.4,30.22,North,0,0.0,0.0,42,0.00,,,0.00,WUHU216HW,2013-04-21 16:43:00,
2013-04-21 12:48:00,64.4,40.1,30.22,North,0,0.0,0.0,41,0.00,,,0.00,WUHU216HW,2013-04-21 16:48:00,
2013-04-21 12:53:00,65.5,40.6,30.22,North,0,0.0,0.0,40,0.00,,,0.00,WUHU216HW,2013-04-21 16:53:00,
2013-04-21 12:58:00,65.2,37.4,30.22,North,0,0.0,0.0,36,0.00,,,0.00,WUHU216HW,2013-04-21 16:58:00,
2013-04-21 13:03:00,65.3,40.4,30.22,North,0,0.0,0.0,40,0.00,,,0.00,WUHU216HW,2013-04-21 17:03:00,
2013-04-21 13:08:00,66.1,41.0,30.22,North,0,0.0,0.0,40,0.00,,,0.00,WUHU216HW,2013-04-21 17:08:00,
2013-04-21 13:13:00,65.9,39.4,30.22,North,0,0.0,0.0,38,0.00,,,0.00,WUHU216HW,2013-04-21 17:13:00,
2013-04-21 13:18:00,66.6,40.9,30.22,North,0,0.0,0.0,39,0.00,,,0.00,WUHU216HW,2013-04-21 17:18:00,
2013-04-21 13:23:00,67.3,41.5,30.21,North,0,0.0,0.0,39,0.00,,,0.00,WUHU216HW,2013-04-21 17:23:00,
2013-04-21 13:28:00,67.3,42.8,30.21,North,0,0.0,0.0,41,0.00,,,0.00,WUHU216HW,2013-04-21 17:28:00,
2013-04-21 13:33:00,67.0,41.1,30.21,North,0,0.0,0.0,39,0.00,,,0.00,WUHU216HW,2013-04-21 17:33:00,
2013-04-21 13:38:00,67.3,40.0,30.21,North,0,0.0,0.0,37,0.00,,,0.00,WUHU216HW,2013-04-21 17:38:00,
2013-04-21 13:43:00,67.1,40.6,30.21,North,0,0.0,0.0,38,0.00,,,0.00,WUHU216HW,2013-04-21 17:43:00,
2013-04-21 13:48:00,67.3,41.5,30.21,North,0,0.0,0.0,39,0.00,,,0.00,WUHU216HW,2013-04-21 17:48:00,
2013-04-21 13:53:00,66.8,38.8,30.21,North,0,0.0,0.0,36,0.00,,,0.00,WUHU216HW,2013-04-21 17:53:00,
2013-04-21 13:58:00,67.1,41.3,30.21,North,0,0.0,0.0,39,0.00,,,0.00,WUHU216HW,2013-04-21 17:58:00,
2013-04-21 14:03:00,68.0,42.8,30.20,North,0,0.0,0.0,40,0.00,,,0.00,WUHU216HW,2013-04-21 18:03:00,
2013-04-21 14:08:00,68.6,43.3,30.20,North,0,0.0,0.0,40,0.00,,,0.00,WUHU216HW,2013-04-21 18:08:00,
2013-04-21 14:13:00,68.4,43.2,30.20,North,0,0.0,0.0,40,0.00,,,0.00,WUHU216HW,2013-04-21 18:13:00,
2013-04-21 14:18:00,68.0,41.4,30.20,North,0,0.0,0.0,38,0.00,,,0.00,WUHU216HW,2013-04-21 18:18:00,
2013-04-21 14:23:00,67.9,41.9,30.20,North,0,0.0,0.0,39,0.00,,,0.00,WUHU216HW,2013-04-21 18:23:00,
2013-04-21 14:28:00,67.7,41.0,30.20,North,0,0.0,0.0,38,0.00,,,0.00,WUHU216HW,2013-04-21 18:28:00,
2013-04-21 14:33:00,68.0,41.4,30.19,North,0,0.0,0.0,38,0.00,,,0.00,WUHU216HW,2013-04-21 18:33:00,
2013-04-21 14:38:00,68.8,43.5,30.19,North,0,0.0,0.0,40,0.00,,,0.00,WUHU216HW,2013-04-21 18:38:00,
2013-04-21 14:43:00,69.1,40.2,30.19,North,0,0.0,0.0,35,0.00,,,0.00,WUHU216HW,2013-04-21 18:43:00,
2013-04-21 14:48:00,68.8,43.5,30.19,North,0,0.0,0.0,40,0.00,,,0.00,WUHU216HW,2013-04-21 18:48:00,
2013-04-21 14:53:00,69.1,42.3,30.19,North,0,0.0,0.0,38,0.00,,,0.00,WUHU216HW,2013-04-21 18:53:00,
2013-04-21 14:58:00,68.9,42.9,30.19,North,0,0.0,0.0,39,0.00,,,0.00,WUHU216HW,2013-04-21 18:58:00,
2013-04-21 15:03:00,68.8,43.5,30.19,North,0,0.0,0.0,40,0.00,,,0.00,WUHU216HW,2013-04-21 19:03:00,
2013-04-21 15:08:00,68.9,42.9,30.19,North,0,0.0,0.0,39,0.00,,,0.00,WUHU216HW,2013-04-21 19:08:00,
2013-04-21 15:13:00,68.8,43.5,30.19,North,0,0.0,0.0,40,0.00,,,0.00,WUHU216HW,2013-04-21 19:13:00,
2013-04-21 15:18:00,68.8,43.5,30.18,North,0,0.0,0.0,40,0.00,,,0.00,WUHU216HW,2013-04-21 19:18:00,
2013-04-21 15:23:00,68.8,42.0,30.18,North,0,0.0,0.0,38,0.00,,,0.00,WUHU216HW,2013-04-21 19:23:00,
2013-04-21 15:28:00,68.4,41.7,30.18,North,0,0.0,0.0,38,0.00,,,0.00,WUHU216HW,2013-04-21 19:28:00,
2013-04-21 15:33:00,68.4,43.2,30.17,North,0,0.0,0.0,40,0.00,,,0.00,WUHU216HW,2013-04-21 19:33:00,
2013-04-21 15:38:00,68.8,41.3,30.17,North,0,0.0,0.0,37,0.00,,,0.00,WUHU216HW,2013-04-21 19:38:00,
2013-04-21 15:43:00,68.6,41.1,30.17,North,0,0.0,0.0,37,0.00,,,0.00,WUHU216HW,2013-04-21 19:43:00,
2013-04-21 15:48:00,68.6,38.9,30.17,North,0,0.0,0.0,34,0.00,,,0.00,WUHU216HW,2013-04-21 19:48:00,
2013-04-21 15:53:00,68.8,42.0,30.17,North,0,0.0,0.0,38,0.00,,,0.00,WUHU216HW,2013-04-21 19:53:00,
2013-04-21 15:58:00,69.1,41.6,30.16,North,0,0.0,0.0,37,0.00,,,0.00,WUHU216HW,2013-04-21 19:58:00,
2013-04-21 16:03:00,68.9,39.3,30.16,North,0,0.0,0.0,34,0.00,,,0.00,WUHU216HW,2013-04-21 20:03:00,
2013-04-21 16:08:00,68.9,41.4,30.17,North,0,0.0,0.0,37,0.00,,,0.00,WUHU216HW,2013-04-21 20:08:00,
2013-04-21 16:13:00,68.6,41.1,30.16,North,0,0.0,0.0,37,0.00,,,0.00,WUHU216HW,2013-04-21 20:13:00,
2013-04-21 16:18:00,68.9,42.2,30.16,North,0,0.0,0.0,38,0.00,,,0.00,WUHU216HW,2013-04-21 20:18:00,
2013-04-21 16:23:00,69.5,42.7,30.16,North,0,0.0,0.0,38,0.00,,,0.00,WUHU216HW,2013-04-21 20:23:00,
2013-04-21 16:28:00,70.0,42.4,30.15,North,0,0.0,0.0,37,0.00,,,0.00,WUHU216HW,2013-04-21 20:28:00,
2013-04-21 16:33:00,69.5,42.0,30.15,North,0,0.0,0.0,37,0.00,,,0.00,WUHU216HW,2013-04-21 20:33:00,
2013-04-21 16:38:00,68.8,40.5,30.15,North,0,0.0,0.0,36,0.00,,,0.00,WUHU216HW,2013-04-21 20:38:00,
2013-04-21 16:43:00,68.6,41.1,30.15,North,0,0.0,0.0,37,0.00,,,0.00,WUHU216HW,2013-04-21 20:43:00,
2013-04-21 16:48:00,68.9,40.0,30.15,North,0,0.0,0.0,35,0.00,,,0.00,WUHU216HW,2013-04-21 20:48:00,
2013-04-21 16:53:00,69.7,40.6,30.15,North,0,0.0,0.0,35,0.00,,,0.00,WUHU216HW,2013-04-21 20:53:00,
2013-04-21 16:58:00,69.7,39.9,30.14,North,0,0.0,0.0,34,0.00,,,0.00,WUHU216HW,2013-04-21 20:58:00,
2013-04-21 17:03:00,69.7,42.1,30.15,North,0,0.0,0.0,37,0.00,,,0.00,WUHU216HW,2013-04-21 21:03:00,
2013-04-21 17:08:00,69.5,42.0,30.15,North,0,0.0,0.0,37,0.00,,,0.00,WUHU216HW,2013-04-21 21:08:00,
2013-04-21 17:13:00,69.5,42.7,30.14,North,0,0.0,0.0,38,0.00,,,0.00,WUHU216HW,2013-04-21 21:13:00,
2013-04-21 17:18:00,69.5,42.7,30.14,North,0,0.0,0.0,38,0.00,,,0.00,WUHU216HW,2013-04-21 21:18:00,
2013-04-21 17:23:00,69.1,41.6,30.14,North,0,0.0,0.0,37,0.00,,,0.00,WUHU216HW,2013-04-21 21:23:00,
2013-04-21 17:28:00,68.0,41.4,30.14,North,0,0.0,0.0,38,0.00,,,0.00,WUHU216HW,2013-04-21 21:28:00,
2013-04-21 17:33:00,67.5,41.6,30.14,North,0,0.0,0.0,39,0.00,,,0.00,WUHU216HW,2013-04-21 21:33:00,
2013-04-21 17:38:00,67.0,39.7,30.14,North,0,0.0,0.0,37,0.00,,,0.00,WUHU216HW,2013-04-21 21:38:00,
2013-04-21 17:43:00,67.0,40.4,30.14,North,0,0.0,0.0,38,0.00,,,0.00,WUHU216HW,2013-04-21 21:43:00,
2013-04-21 17:48:00,67.5,40.9,30.14,North,0,0.0,0.0,38,0.00,,,0.00,WUHU216HW,2013-04-21 21:48:00,
2013-04-21 17:53:00,67.9,41.2,30.14,North,0,0.0,0.0,38,0.00,,,0.00,WUHU216HW,2013-04-21 21:53:00,
2013-04-21 17:58:00,67.7,41.8,30.14,North,0,0.0,0.0,39,0.00,,,0.00,WUHU216HW,2013-04-21 21:58:00,
2013-04-21 18:03:00,67.7,41.8,30.14,North,0,0.0,0.0,39,0.00,,,0.00,WUHU216HW,2013-04-21 22:03:00,
2013-04-21 18:08:00,67.3,42.2,30.14,North,0,0.0,0.0,40,0.00,,,0.00,WUHU216HW,2013-04-21 22:08:00,
2013-04-21 18:13:00,67.0,41.9,30.15,North,0,0.0,0.0,40,0.00,,,0.00,WUHU216HW,2013-04-21 22:13:00,
2013-04-21 18:18:00,66.6,42.1,30.15,North,0,0.0,0.0,41,0.00,,,0.00,WUHU216HW,2013-04-21 22:18:00,
2013-04-21 18:23:00,66.6,42.8,30.15,North,0,0.0,0.0,42,0.00,,,0.00,WUHU216HW,2013-04-21 22:23:00,
2013-04-21 18:28:00,66.2,41.2,30.15,North,0,0.0,0.0,40,0.00,,,0.00,WUHU216HW,2013-04-21 22:28:00,
2013-04-21 18:33:00,66.2,41.2,30.15,North,0,0.0,0.0,40,0.00,,,0.00,WUHU216HW,2013-04-21 22:33:00,
2013-04-21 18:38:00,66.2,41.2,30.15,North,0,0.0,0.0,40,0.00,,,0.00,WUHU216HW,2013-04-21 22:38:00,
2013-04-21 18:43:00,66.2,41.9,30.14,North,0,0.0,0.0,41,0.00,,,0.00,WUHU216HW,2013-04-21 22:43:00,
2013-04-21 18:48:00,65.9,41.5,30.14,North,0,0.0,0.0,41,0.00,,,0.00,WUHU216HW,2013-04-21 22:48:00,
2013-04-21 18:53:00,65.9,41.5,30.14,North,0,0.0,0.0,41,0.00,,,0.00,WUHU216HW,2013-04-21 22:53:00,